[[{"header":{"parameterUnit":"m.s-1","parameterCategory":1,"la1":30.2992,"la2":30.254,"lo1":-89.0895,"lo2":-89.0443,"dy":0.0025,"dx":0.0025,"nx":19,"ny":19,"refTime":"2026-03-09T09:00:00:Z","depth":0,"parameterNumber":2,"parameterNumberName":"U-component_of_WINDS"},"data":[0,0,0,-2.855,-2.8552,-2.8649,-2.8649,-2.8766,-2.8767,0,0,0,0,0,0,0,0,0,0,0,-2.8518,-2.8519,-2.855,-2.8552,-2.8649,-2.8649,-2.8766,-2.8767,0,0,0,0,0,0,0,0,0,0,0,-2.8518,-2.8519,-2.8519,-2.8552,-2.8649,-2.8649,-2.8766,-2.8695,0,0,0,0,0,0,0,0,0,0,-2.8602,-2.857,-2.8518,-2.8519,-2.8553,-2.8649,-2.8649,-2.8692,-2.8699,-2.872,0,-2.8738,0,-2.8755,-2.8775,-2.8775,0,0,0,-2.8554,-2.8563,-2.8592,-2.852,-2.8554,-2.8649,-2.8606,-2.8696,-2.8705,-2.873,-2.874,-2.8744,-2.8757,-2.8776,-2.8776,-2.8889,-2.889,0,0,-2.8549,-2.8533,-2.8586,-2.8598,-2.8584,-2.8603,-2.8609,-2.8701,-2.8711,-2.874,-2.8747,-2.8759,-2.8776,-2.8777,-2.8889,-2.889,0,0,0,-2.8532,-2.853,-2.8557,-2.8593,-2.8611,-2.8605,-2.8612,-2.8707,-2.8717,-2.8749,-2.876,-2.8777,-2.8778,-2.8889,-2.8889,-2.8895,0,0,0,-2.8529,-2.852,-2.8554,-2.8546,-2.8609,-2.866,-2.8615,-2.871,-2.8721,-2.8759,-2.8777,-2.8779,-2.8888,-2.8889,-2.8894,-2.89,0,0,0,-2.8513,-2.8518,-2.8531,-2.8545,-2.8586,-2.8659,-2.8675,-2.8713,-2.8728,-2.8775,-2.878,-2.8888,-2.8889,-2.8893,-2.8898,-2.8924,0,0,0,-2.8491,-2.8535,-2.8531,-2.8585,-2.8585,-2.8663,-2.8674,-2.8733,-2.8774,-2.8778,-2.8888,-2.8889,-2.8893,-2.8897,-2.8923,-2.8942,-2.8949,0,0,-2.8538,-2.854,-2.8573,-2.8573,-2.8647,-2.8649,-2.8725,-2.8777,-2.8795,-2.8856,-2.886,-2.8894,-2.8898,-2.8924,-2.8997,-2.9002,0,0,0,-2.8583,-2.8606,-2.863,-2.8669,-2.871,-2.8746,-2.8788,-2.8807,-2.8861,-2.8824,-2.8912,-2.8915,-2.8931,-2.894,-2.8945,-2.8959,-2.8894,-2.8893,-2.8893,-2.8627,-2.8649,-2.8704,-2.8738,-2.8775,-2.8819,-2.8851,-2.8884,-2.8895,-2.8915,-2.8933,-2.8975,-2.8986,-2.8989,-2.9003,-2.8946,-2.8946,-2.8946,-2.8946,-2.8697,-2.8733,-2.8747,-2.8805,-2.8827,-2.8877,-2.892,-2.8926,-2.8974,-2.8963,-2.8978,-2.8962,-2.8994,-2.9008,-2.8947,-2.8947,-2.8947,-2.8947,-2.8947,-2.8727,-2.8747,-2.8771,-2.883,-2.8872,-2.8905,-2.895,-2.8969,-2.8987,-2.9002,-2.9022,-2.9022,-2.9023,-2.9011,-2.9011,-2.9011,-2.9011,-2.9011,-2.9011,-2.8747,-2.8774,-2.881,-2.8858,-2.8886,-2.8924,-2.8969,-2.8996,-2.903,-2.904,-2.9041,-2.9048,-2.8995,-2.8979,-2.9014,-2.9013,-2.9013,-2.9013,-2.9013,-2.8807,-2.8796,-2.8853,-2.888,-2.8938,-2.8978,-2.9003,-2.9056,-2.9082,-2.9103,-2.9108,-2.9066,-2.9069,-2.9066,-2.9053,-2.9105,-2.9105,-2.9105,-2.9105,-2.883,-2.8834,-2.8896,-2.8938,-2.8982,-2.901,-2.9072,-2.9107,-2.9141,-2.9158,-2.9154,-2.914,-2.9135,-2.9141,-2.9136,-2.9124,-2.9192,-2.9192,-2.9193,-2.8867,-2.8876,-2.8925,-2.896,-2.9007,-2.9046,-2.9104,-2.9151,-2.9188,-2.9196,-2.9171,-2.9167,-2.9145,-2.9137,-2.9142,-2.9133,-2.9113,0,0]},{"header":{"parameterUnit":"m.s-1","parameterCategory":1,"la1":30.2992,"la2":30.254,"lo1":-89.0895,"lo2":-89.0443,"dy":0.0025,"dx":0.0025,"nx":19,"ny":19,"refTime":"2026-03-09T09:00:00:Z","depth":0,"parameterNumber":3,"parameterNumberName":"V-component_of_WINDS"},"data":[0,0,0,2.6646,2.6648,2.6764,2.6764,2.6888,2.6889,0,0,0,0,0,0,0,0,0,0,0,2.6598,2.6598,2.6646,2.6648,2.6764,2.6764,2.6888,2.6889,0,0,0,0,0,0,0,0,0,0,0,2.6598,2.6598,2.6598,2.6649,2.6764,2.6764,2.6888,2.6809,0,0,0,0,0,0,0,0,0,0,2.6701,2.6642,2.6598,2.6598,2.6649,2.6763,2.6764,2.6806,2.6814,2.6826,0,2.6833,0,2.6863,2.6896,2.6896,0,0,0,2.6659,2.6635,2.668,2.6598,2.665,2.6763,2.6715,2.6811,2.682,2.6837,2.6835,2.684,2.6865,2.6897,2.6897,2.6933,2.6932,0,0,2.6652,2.6611,2.6673,2.6685,2.6666,2.6711,2.6718,2.6817,2.6812,2.6835,2.6843,2.6867,2.6897,2.6898,2.6933,2.6933,0,0,0,2.6627,2.6605,2.6648,2.6679,2.6702,2.6714,2.6722,2.6807,2.6825,2.6845,2.6868,2.6898,2.6899,2.6933,2.6933,2.6878,0,0,0,2.6624,2.6591,2.6645,2.662,2.6699,2.6756,2.671,2.6818,2.683,2.6868,2.6898,2.69,2.6934,2.6933,2.688,2.6858,0,0,0,2.6595,2.6588,2.66,2.6618,2.6666,2.6755,2.6779,2.6821,2.6844,2.6896,2.69,2.6934,2.6933,2.6882,2.6862,2.6857,0,0,0,2.6552,2.6547,2.6598,2.6602,2.6665,2.672,2.6779,2.6822,2.686,2.6898,2.6934,2.6933,2.6883,2.6864,2.6859,2.6845,2.6836,0,0,2.6523,2.6542,2.6548,2.6597,2.6633,2.6706,2.6734,2.6808,2.6851,2.6903,2.6904,2.6879,2.6862,2.6857,2.6795,2.6786,0,0,0,2.6525,2.6529,2.6547,2.6583,2.664,2.6687,2.6762,2.679,2.6836,2.6869,2.6877,2.6868,2.6867,2.6862,2.6856,2.6858,2.6929,2.6929,2.6929,2.6423,2.648,2.6494,2.6564,2.6597,2.6675,2.6708,2.6758,2.6804,2.6805,2.6821,2.6776,2.6769,2.6765,2.6766,2.6818,2.6817,2.6817,2.6817,2.6387,2.6402,2.6465,2.6501,2.656,2.6591,2.6666,2.6698,2.6736,2.6768,2.677,2.6801,2.6754,2.6758,2.6814,2.6814,2.6815,2.6815,2.6815,2.6327,2.6344,2.6379,2.6437,2.6476,2.6547,2.6581,2.6634,2.6683,2.6685,2.6708,2.6709,2.6718,2.6692,2.6692,2.6692,2.6692,2.6692,2.6692,2.6252,2.6293,2.6316,2.6378,2.6408,2.6455,2.6534,2.6565,2.6614,2.6649,2.665,2.6696,2.6739,2.6749,2.6689,2.669,2.669,2.669,2.669,2.6195,2.6217,2.6252,2.6282,2.6361,2.6396,2.6463,2.6523,2.6556,2.6572,2.6618,2.6641,2.6664,2.667,2.6679,2.6605,2.6605,2.6605,2.6605,2.6146,2.6163,2.6212,2.6258,2.6309,2.6374,2.6412,2.6474,2.6541,2.6565,2.6584,2.66,2.6603,2.6625,2.6631,2.6641,2.6559,2.6559,2.6559,2.6115,2.614,2.6162,2.623,2.6295,2.635,2.6388,2.6438,2.6519,2.6558,2.6586,2.6588,2.6614,2.662,2.6659,2.6669,2.6687,0,0]}]]